OBJECT D, 65998

Orbit data source: Space-Track

You're viewing an Uncataloged Satellite

Recently launched and/or uncataloged satellites may have evolving metadata. Metadata may include but not limited to: Owner, Maufacturer, Bus, Motor, and Mission.

OBJECT D, 65998 is a satellite owned by Zhongguo Xingwang (CN) in LEO that was launched on Thu, 16 Oct 2025 UTC via a CHANG ZHENG 8A launch vehicle from the Wenchang Satellite Launch Center (WSC). Unknown objects in Earth's orbit typically refer to objects detected orbiting the Earth but have not yet been identified or cataloged. These objects could be anything from previously untracked satellites, spent rocket stages, debris from satellite collisions, or even natural meteoroids temporarily captured by Earth's gravity.

Loading next visibility...
Identifier
65998, 2025-231D
Orbit
LEO
Country
Flag of CNCN / PRC
Related business
Manufacturer
CAST
Mission
Operational spacecraft
Bus & Motor
GUOWANG C, Unknown motor
Mass
~800 kg wet, ~800 kg dry
Launch date (UTC)
2025-10-16 (2 months ago)
Launch vehicle
CHANG ZHENG 8A
Launch site
Wenchang Satellite Launch Center (WSC)
Object type
Unknown
Shape & HBR
Unknown shape, 1.1 m
Radar Cross Section
RCS unknown

Expand to show TLE details & history
Last TLE update: 19 hours ago

TLE from 19 hours ago
0 OBJECT D
1 65998U 25231D   25340.82071506 -.00000035  00000-0  11720-3 0  9996
2 65998  50.0013 149.9757 0000292   5.3297 354.7596 13.70414599  7233
Epoch: 2025-12-06T19:41Z
TLE epoch observation values (Epoch: 2025-12-06T19:41:49.781Z)
Latitude
-0.00001°
Longitude
138.67531°
Altitude
998.385 km
Speed
7.354 km/s
True Right ascension
09h 59m 54s
True Declination
0° 00' 00"
Sunlit
Object was in daylight at epoch
Visualization orbit readout
Latitude
Unknown
Longitude
Unknown
Altitude
Unknown
Speed
Unknown
Apparent Right ascension
Unknown
Apparent Declination
Unknown
Sunlit
N/A
Visualization observer readout
Local Sidereal Time
12:44:34
Azimuth
Unknown
Elevation
Unknown
Doppler factor
Unknown
Orbital elements
Apogee altitude
999.018 km
Perigee altitude
998.587 km
Semi-major axis
7,376.939 km
Eccentricity
0.00003
Inclination
50.0013°
RAAN
149.9757°
Arg. of periapsis
5.3297°
True anomaly
354.75929°
Mean anomaly
354.7596°
Eccentric anomaly
354.75945°
Mean motion
3.42554 °/min
Orbital period
105.09 mins
BSTAR
0.0001172
Loading maneuver chart data...
Computing Atmospheric mass density...
Loading historical data...
Loading historical data...
Loading historical data...
Loading historical data...
Loading historical data...
Loading historical data...
Loading historical data...

Documentation

Showing up to 5 results
|